Time,TemperatureF,DewpointF,PressureIn,WindDirection,WindDirectionDegrees,WindSpeedMPH,WindSpeedGustMPH,Humidity,HourlyPrecipIn,Conditions,Clouds,dailyrainin,SoftwareType,DateUTC
2013-08-19 00:08:00,80.0,61.3,29.98,East,90,1.0,0.0,53,0.00,CLR,,0.00,WeatherDisplay:10.37,2013-08-19 05:08:00,
2013-08-19 00:18:00,79.7,61.5,29.99,East,94,0.0,0.0,54,0.00,CLR,,0.00,WeatherDisplay:10.37,2013-08-19 05:18:00,
2013-08-19 00:28:00,79.3,61.8,29.99,East,90,1.0,0.0,55,0.00,CLR,,0.00,WeatherDisplay:10.37,2013-08-19 05:28:00,
2013-08-19 00:38:00,79.1,62.1,29.99,ESE,105,1.0,0.0,56,0.00,CLR,,0.00,WeatherDisplay:10.37,2013-08-19 05:38:00,
2013-08-19 00:48:00,78.8,61.7,29.99,ESE,111,0.0,0.0,56,0.00,CLR,,0.00,WeatherDisplay:10.37,2013-08-19 05:48:00,
2013-08-19 00:58:00,78.4,61.9,29.99,East,90,1.0,0.0,57,0.00,CLR,,0.00,WeatherDisplay:10.37,2013-08-19 05:58:00,
2013-08-19 01:08:00,78.1,62.1,29.98,East,91,0.0,0.0,58,0.00,CLR,,0.00,WeatherDisplay:10.37,2013-08-19 06:08:00,
2013-08-19 01:18:00,77.7,61.8,29.99,East,90,0.0,0.0,58,0.00,CLR,,0.00,WeatherDisplay:10.37,2013-08-19 06:18:00,
2013-08-19 01:28:00,77.5,62.1,29.98,East,87,1.0,0.0,59,0.00,CLR,,0.00,WeatherDisplay:10.37,2013-08-19 06:28:00,
2013-08-19 01:38:00,77.2,61.7,29.98,East,95,1.0,0.0,59,0.00,CLR,,0.00,WeatherDisplay:10.37,2013-08-19 06:38:00,
2013-08-19 01:48:00,77.0,61.6,29.98,East,93,1.0,0.0,59,0.00,CLR,,0.00,WeatherDisplay:10.37,2013-08-19 06:48:00,
2013-08-19 01:58:00,76.8,61.4,29.98,East,80,1.0,0.0,59,0.00,CLR,,0.00,WeatherDisplay:10.37,2013-08-19 06:58:00,
2013-08-19 02:08:00,76.6,61.2,29.98,East,94,2.0,0.0,59,0.00,CLR,,0.00,WeatherDisplay:10.37,2013-08-19 07:08:00,
2013-08-19 02:18:00,76.6,61.2,29.98,East,89,2.0,0.0,59,0.00,CLR,,0.00,WeatherDisplay:10.37,2013-08-19 07:18:00,
2013-08-19 02:28:00,76.6,61.2,29.98,East,87,1.0,0.0,59,0.00,CLR,,0.00,WeatherDisplay:10.37,2013-08-19 07:28:00,
2013-08-19 02:38:00,76.5,61.1,29.98,East,84,3.0,0.0,59,0.00,CLR,,0.00,WeatherDisplay:10.37,2013-08-19 07:38:00,
2013-08-19 02:48:00,76.3,60.9,29.98,East,97,1.0,0.0,59,0.00,CLR,,0.00,WeatherDisplay:10.37,2013-08-19 07:48:00,
2013-08-19 02:58:00,76.2,60.9,29.98,ESE,111,2.0,0.0,59,0.00,CLR,,0.00,WeatherDisplay:10.37,2013-08-19 07:58:00,
2013-08-19 03:08:00,76.2,60.9,29.98,East,99,2.0,0.0,59,0.00,CLR,,0.00,WeatherDisplay:10.37,2013-08-19 08:08:00,
2013-08-19 03:18:00,76.1,61.2,29.98,ESE,106,2.0,0.0,60,0.00,CLR,,0.00,WeatherDisplay:10.37,2013-08-19 08:18:00,
2013-08-19 03:28:00,76.1,61.2,29.98,East,97,2.0,0.0,60,0.00,CLR,,0.00,WeatherDisplay:10.37,2013-08-19 08:28:00,
2013-08-19 03:38:00,75.9,61.0,29.98,East,98,2.0,0.0,60,0.00,CLR,,0.00,WeatherDisplay:10.37,2013-08-19 08:38:00,
2013-08-19 03:48:00,75.9,61.5,29.98,ENE,70,3.0,0.0,61,0.00,CLR,,0.00,WeatherDisplay:10.37,2013-08-19 08:48:00,
2013-08-19 03:58:00,75.9,61.5,29.98,East,86,3.0,0.0,61,0.00,CLR,,0.00,WeatherDisplay:10.37,2013-08-19 08:58:00,
2013-08-19 04:08:00,75.9,61.9,29.98,East,97,1.0,0.0,62,0.00,CLR,,0.00,WeatherDisplay:10.37,2013-08-19 09:08:00,
2013-08-19 04:18:00,75.6,61.6,29.97,East,96,3.0,0.0,62,0.00,CLR,,0.00,WeatherDisplay:10.37,2013-08-19 09:18:00,
2013-08-19 04:28:00,75.4,61.9,29.97,East,101,2.0,0.0,63,0.00,CLR,,0.00,WeatherDisplay:10.37,2013-08-19 09:28:00,
2013-08-19 04:38:00,75.2,61.7,29.97,East,92,3.0,0.0,63,0.00,CLR,,0.00,WeatherDisplay:10.37,2013-08-19 09:38:00,
2013-08-19 04:48:00,75.0,62.0,29.97,East,92,2.0,0.0,64,0.00,CLR,,0.00,WeatherDisplay:10.37,2013-08-19 09:48:00,
2013-08-19 04:58:00,75.0,62.0,29.97,ESE,105,1.0,0.0,64,0.00,CLR,,0.00,WeatherDisplay:10.37,2013-08-19 09:58:00,
2013-08-19 05:08:00,74.8,62.3,29.98,ESE,110,2.0,0.0,65,0.00,CLR,,0.00,WeatherDisplay:10.37,2013-08-19 10:08:00,
2013-08-19 05:18:00,74.5,61.9,29.98,East,88,2.0,0.0,65,0.00,CLR,,0.00,WeatherDisplay:10.37,2013-08-19 10:18:00,
2013-08-19 05:28:00,74.5,62.4,29.98,East,80,1.0,0.0,66,0.00,CLR,,0.00,WeatherDisplay:10.37,2013-08-19 10:28:00,
2013-08-19 05:38:00,74.1,62.0,29.98,ENE,74,3.0,0.0,66,0.00,CLR,,0.00,WeatherDisplay:10.37,2013-08-19 10:38:00,
2013-08-19 05:48:00,74.1,62.5,29.98,ESE,104,6.0,0.0,67,0.00,CLR,,0.00,WeatherDisplay:10.37,2013-08-19 10:48:00,
2013-08-19 05:58:00,74.1,62.5,29.98,East,101,8.0,0.0,67,0.00,CLR,,0.00,WeatherDisplay:10.37,2013-08-19 10:58:00,
2013-08-19 06:08:00,74.1,62.5,29.98,ESE,112,9.0,0.0,67,0.00,CLR,,0.00,WeatherDisplay:10.37,2013-08-19 11:08:00,
2013-08-19 06:18:00,74.3,62.6,29.99,ESE,121,1.0,0.0,67,0.00,CLR,,0.00,WeatherDisplay:10.37,2013-08-19 11:18:00,
2013-08-19 06:28:00,74.1,62.9,29.99,SE,134,3.0,0.0,68,0.00,CLR,,0.00,WeatherDisplay:10.37,2013-08-19 11:28:00,
2013-08-19 06:38:00,74.1,62.8,29.99,ESE,108,1.0,0.0,68,0.00,CLR,,0.00,WeatherDisplay:10.37,2013-08-19 11:38:00,
2013-08-19 06:48:00,73.9,62.7,30.00,East,100,2.0,0.0,68,0.00,CLR,,0.00,WeatherDisplay:10.37,2013-08-19 11:48:00,
2013-08-19 06:58:00,73.9,62.7,30.00,ESE,107,2.0,0.0,68,0.00,CLR,,0.00,WeatherDisplay:10.37,2013-08-19 11:58:00,
2013-08-19 07:08:00,73.8,63.0,30.00,East,96,1.0,0.0,69,0.00,CLR,,0.00,WeatherDisplay:10.37,2013-08-19 12:08:00,
2013-08-19 07:18:00,73.8,63.0,30.00,ESE,116,1.0,0.0,69,0.00,CLR,,0.00,WeatherDisplay:10.37,2013-08-19 12:18:00,
2013-08-19 07:28:00,73.8,63.0,30.01,ESE,113,1.0,0.0,69,0.00,CLR,,0.00,WeatherDisplay:10.37,2013-08-19 12:28:00,
2013-08-19 07:38:00,73.9,63.5,30.01,ENE,65,3.0,0.0,70,0.00,CLR,,0.00,WeatherDisplay:10.37,2013-08-19 12:38:00,
2013-08-19 07:48:00,74.1,63.7,30.02,East,99,3.0,0.0,70,0.00,CLR,,0.00,WeatherDisplay:10.37,2013-08-19 12:48:00,
2013-08-19 07:58:00,74.3,63.9,30.02,East,80,6.0,0.0,70,0.00,CLR,,0.00,WeatherDisplay:10.37,2013-08-19 12:58:00,
2013-08-19 08:08:00,74.5,64.1,30.02,East,86,1.0,0.0,70,0.00,CLR,,0.00,WeatherDisplay:10.37,2013-08-19 13:08:00,
2013-08-19 08:18:00,74.8,64.4,30.03,ESE,106,3.0,0.0,70,0.00,CLR,,0.00,WeatherDisplay:10.37,2013-08-19 13:18:00,
2013-08-19 08:28:00,75.2,64.3,30.03,SE,130,7.0,0.0,69,0.00,CLR,,0.00,WeatherDisplay:10.37,2013-08-19 13:28:00,
2013-08-19 08:38:00,75.6,64.7,30.03,ESE,116,5.0,0.0,69,0.00,CLR,,0.00,WeatherDisplay:10.37,2013-08-19 13:38:00,
2013-08-19 08:48:00,76.1,65.2,30.03,East,101,6.0,0.0,69,0.00,CLR,,0.00,WeatherDisplay:10.37,2013-08-19 13:48:00,
2013-08-19 08:58:00,76.6,65.3,30.03,SE,130,1.0,0.0,68,0.00,CLR,,0.00,WeatherDisplay:10.37,2013-08-19 13:58:00,
2013-08-19 09:08:00,77.1,65.7,30.03,SE,136,8.0,0.0,68,0.00,CLR,,0.00,WeatherDisplay:10.37,2013-08-19 14:08:00,
2013-08-19 09:18:00,77.7,65.5,30.03,SE,144,5.0,0.0,66,0.00,CLR,,0.00,WeatherDisplay:10.37,2013-08-19 14:18:00,
2013-08-19 09:28:00,78.1,65.8,30.03,ESE,118,5.0,0.0,66,0.00,CLR,,0.00,WeatherDisplay:10.37,2013-08-19 14:28:00,
2013-08-19 09:38:00,78.8,66.0,30.03,SSE,151,6.0,0.0,65,0.00,CLR,,0.00,WeatherDisplay:10.37,2013-08-19 14:38:00,
2013-08-19 09:48:00,79.2,66.0,30.04,SSE,155,9.0,0.0,64,0.00,CLR,,0.00,WeatherDisplay:10.37,2013-08-19 14:48:00,
2013-08-19 09:58:00,79.7,66.0,30.04,SE,130,3.0,0.0,63,0.00,CLR,,0.00,WeatherDisplay:10.37,2013-08-19 14:58:00,
2013-08-19 10:08:00,80.3,66.5,30.04,East,88,2.0,0.0,63,0.00,CLR,,0.00,WeatherDisplay:10.37,2013-08-19 15:08:00,
2013-08-19 10:18:00,81.1,66.9,30.04,SE,138,5.0,0.0,62,0.00,CLR,,0.00,WeatherDisplay:10.37,2013-08-19 15:18:00,
2013-08-19 10:28:00,81.9,67.1,30.04,ESE,118,3.0,0.0,61,0.00,CLR,,0.00,WeatherDisplay:10.37,2013-08-19 15:28:00,
2013-08-19 10:38:00,83.2,67.3,30.04,SSE,155,9.0,0.0,59,0.00,CLR,,0.00,WeatherDisplay:10.37,2013-08-19 15:38:00,
2013-08-19 10:48:00,84.4,68.5,30.04,SE,142,9.0,0.0,59,0.00,CLR,,0.00,WeatherDisplay:10.37,2013-08-19 15:48:00,
2013-08-19 10:58:00,85.5,68.5,30.03,SE,135,3.0,0.0,57,0.00,CLR,,0.00,WeatherDisplay:10.37,2013-08-19 15:58:00,
2013-08-19 11:08:00,86.0,68.0,30.03,South,177,6.0,0.0,55,0.00,CLR,,0.00,WeatherDisplay:10.37,2013-08-19 16:08:00,
2013-08-19 11:18:00,86.4,68.3,30.03,ESE,107,2.0,0.0,55,0.00,CLR,,0.00,WeatherDisplay:10.37,2013-08-19 16:18:00,
2013-08-19 11:28:00,86.5,68.5,30.03,SSE,163,7.0,0.0,55,0.00,CLR,,0.00,WeatherDisplay:10.37,2013-08-19 16:28:00,
2013-08-19 11:38:00,86.9,68.3,30.03,SE,142,3.0,0.0,54,0.00,CLR,,0.00,WeatherDisplay:10.37,2013-08-19 16:38:00,
2013-08-19 11:48:00,87.3,68.0,30.03,SSE,160,6.0,0.0,53,0.00,CLR,,0.00,WeatherDisplay:10.37,2013-08-19 16:48:00,
2013-08-19 11:58:00,87.3,67.5,30.03,East,94,0.0,0.0,52,0.00,CLR,,0.00,WeatherDisplay:10.37,2013-08-19 16:58:00,
2013-08-19 12:08:00,87.7,67.9,30.03,East,99,5.0,0.0,52,0.00,CLR,,0.00,WeatherDisplay:10.37,2013-08-19 17:08:00,
2013-08-19 12:19:00,88.3,68.5,30.02,SE,145,2.0,0.0,52,0.00,CLR,,0.00,WeatherDisplay:10.37,2013-08-19 17:19:00,
2013-08-19 12:28:00,88.9,67.9,30.02,South,171,9.0,0.0,50,0.00,CLR,,0.00,WeatherDisplay:10.37,2013-08-19 17:28:00,
2013-08-19 12:38:00,89.2,68.2,30.02,ENE,57,2.0,0.0,50,0.00,CLR,,0.00,WeatherDisplay:10.37,2013-08-19 17:38:00,
2013-08-19 12:48:00,89.6,68.5,30.01,SSE,147,1.0,0.0,50,0.00,CLR,,0.00,WeatherDisplay:10.37,2013-08-19 17:48:00,
2013-08-19 12:58:00,90.0,68.2,30.01,SSW,202,7.0,0.0,49,0.00,CLR,,0.00,WeatherDisplay:10.37,2013-08-19 17:58:00,
2013-08-19 13:08:00,90.1,67.2,30.01,South,187,9.0,0.0,47,0.00,CLR,,0.00,WeatherDisplay:10.37,2013-08-19 18:08:00,
2013-08-19 13:18:00,90.3,66.7,30.00,South,175,2.0,0.0,46,0.00,CLR,,0.00,WeatherDisplay:10.37,2013-08-19 18:18:00,
2013-08-19 13:28:00,90.9,67.2,30.00,SE,135,3.0,0.0,46,0.00,CLR,,0.00,WeatherDisplay:10.37,2013-08-19 18:28:00,
2013-08-19 13:38:00,90.7,67.1,30.00,SSW,213,3.0,0.0,46,0.00,CLR,,0.00,WeatherDisplay:10.37,2013-08-19 18:38:00,
2013-08-19 13:48:00,90.5,65.6,29.99,NW,318,3.0,0.0,44,0.00,CLR,,0.00,WeatherDisplay:10.37,2013-08-19 18:48:00,
2013-08-19 13:58:00,90.9,66.6,29.99,NE,42,5.0,0.0,45,0.00,CLR,,0.00,WeatherDisplay:10.37,2013-08-19 18:58:00,
2013-08-19 14:08:00,91.2,65.6,29.98,SE,138,1.0,0.0,43,0.00,CLR,,0.00,WeatherDisplay:10.37,2013-08-19 19:08:00,
2013-08-19 14:19:00,91.4,66.5,29.98,ENE,67,6.0,0.0,44,0.00,CLR,,0.00,WeatherDisplay:10.37,2013-08-19 19:19:00,
2013-08-19 14:28:00,91.8,65.4,29.98,East,92,5.0,0.0,42,0.00,CLR,,0.00,WeatherDisplay:10.37,2013-08-19 19:28:00,
2013-08-19 14:38:00,91.9,65.6,29.97,SE,134,2.0,0.0,42,0.00,CLR,,0.00,WeatherDisplay:10.37,2013-08-19 19:38:00,
2013-08-19 14:48:00,92.3,65.2,29.97,ESE,112,1.0,0.0,41,0.00,CLR,,0.00,WeatherDisplay:10.37,2013-08-19 19:48:00,
2013-08-19 14:58:00,92.8,65.0,29.96,SE,130,1.0,0.0,40,0.00,CLR,,0.00,WeatherDisplay:10.37,2013-08-19 19:58:00,
2013-08-19 15:08:00,93.0,65.1,29.96,SSE,160,6.0,0.0,40,0.00,CLR,,0.00,WeatherDisplay:10.37,2013-08-19 20:08:00,
2013-08-19 15:18:00,93.4,64.7,29.95,South,175,3.0,0.0,39,0.00,CLR,,0.00,WeatherDisplay:10.37,2013-08-19 20:18:00,
2013-08-19 15:28:00,93.4,64.7,29.95,ESE,110,8.0,0.0,39,0.00,CLR,,0.00,WeatherDisplay:10.37,2013-08-19 20:28:00,
2013-08-19 15:38:00,93.7,65.8,29.94,South,174,7.0,0.0,40,0.00,CLR,,0.00,WeatherDisplay:10.37,2013-08-19 20:38:00,
2013-08-19 15:48:00,94.1,65.4,29.94,ENE,64,9.0,0.0,39,0.00,CLR,,0.00,WeatherDisplay:10.37,2013-08-19 20:48:00,
2013-08-19 15:58:00,94.0,65.2,29.93,ESE,105,2.0,0.0,39,0.00,CLR,,0.00,WeatherDisplay:10.37,2013-08-19 20:58:00,
2013-08-19 16:08:00,94.1,64.6,29.93,ESE,106,9.0,0.0,38,0.00,CLR,,0.00,WeatherDisplay:10.37,2013-08-19 21:08:00,
2013-08-19 16:18:00,94.1,64.6,29.93,ESE,103,5.0,0.0,38,0.00,CLR,,0.00,WeatherDisplay:10.37,2013-08-19 21:18:00,
2013-08-19 16:28:00,93.9,64.5,29.92,ESE,114,3.0,0.0,38,0.00,CLR,,0.00,WeatherDisplay:10.37,2013-08-19 21:28:00,
2013-08-19 16:38:00,93.9,64.5,29.92,NE,50,9.0,0.0,38,0.00,CLR,,0.00,WeatherDisplay:10.37,2013-08-19 21:38:00,
2013-08-19 16:48:00,93.7,65.0,29.92,NNE,27,10.0,0.0,39,0.00,CLR,,0.00,WeatherDisplay:10.37,2013-08-19 21:48:00,
2013-08-19 16:58:00,93.9,64.5,29.92,East,81,3.0,0.0,38,0.00,CLR,,0.00,WeatherDisplay:10.37,2013-08-19 21:58:00,
2013-08-19 17:08:00,94.3,64.8,29.92,ENE,77,7.0,0.0,38,0.00,CLR,,0.00,WeatherDisplay:10.37,2013-08-19 22:08:00,
2013-08-19 17:18:00,94.5,64.9,29.92,ENE,61,2.0,0.0,38,0.00,CLR,,0.00,WeatherDisplay:10.37,2013-08-19 22:18:00,
2013-08-19 17:28:00,94.5,64.9,29.91,East,98,6.0,0.0,38,0.00,CLR,,0.00,WeatherDisplay:10.37,2013-08-19 22:28:00,
2013-08-19 17:38:00,94.5,63.4,29.91,East,96,5.0,0.0,36,0.00,CLR,,0.00,WeatherDisplay:10.37,2013-08-19 22:38:00,
2013-08-19 17:48:00,94.3,64.0,29.91,ENE,59,7.0,0.0,37,0.00,CLR,,0.00,WeatherDisplay:10.37,2013-08-19 22:48:00,
2013-08-19 17:58:00,94.3,64.8,29.91,ENE,71,3.0,0.0,38,0.00,CLR,,0.00,WeatherDisplay:10.37,2013-08-19 22:58:00,
2013-08-19 18:08:00,94.1,64.6,29.91,ESE,105,2.0,0.0,38,0.00,CLR,,0.00,WeatherDisplay:10.37,2013-08-19 23:08:00,
2013-08-19 18:18:00,93.9,64.5,29.91,ENE,63,6.0,0.0,38,0.00,CLR,,0.00,WeatherDisplay:10.37,2013-08-19 23:18:00,
2013-08-19 18:28:00,93.9,63.7,29.90,ENE,69,3.0,0.0,37,0.00,CLR,,0.00,WeatherDisplay:10.37,2013-08-19 23:28:00,
2013-08-19 18:38:00,93.7,63.5,29.90,ENE,77,6.0,0.0,37,0.00,CLR,,0.00,WeatherDisplay:10.37,2013-08-19 23:38:00,
2013-08-19 18:48:00,93.6,64.1,29.90,ENE,60,6.0,0.0,38,0.00,CLR,,0.00,WeatherDisplay:10.37,2013-08-19 23:48:00,
2013-08-19 18:58:00,93.3,63.9,29.90,ENE,68,6.0,0.0,38,0.00,CLR,,0.00,WeatherDisplay:10.37,2013-08-19 23:58:00,
2013-08-19 19:08:00,93.2,63.1,29.90,East,94,6.0,0.0,37,0.00,CLR,,0.00,WeatherDisplay:10.37,2013-08-20 00:08:00,
2013-08-19 19:18:00,93.0,63.6,29.90,ENE,66,5.0,0.0,38,0.00,CLR,,0.00,WeatherDisplay:10.37,2013-08-20 00:18:00,
2013-08-19 19:28:00,92.7,63.3,29.90,NE,47,2.0,0.0,38,0.00,CLR,,0.00,WeatherDisplay:10.37,2013-08-20 00:28:00,
2013-08-19 19:38:00,92.1,62.9,29.90,ENE,69,3.0,0.0,38,0.00,CLR,,0.00,WeatherDisplay:10.37,2013-08-20 00:38:00,
2013-08-19 19:48:00,91.7,62.5,29.90,East,88,2.0,0.0,38,0.00,CLR,,0.00,WeatherDisplay:10.37,2013-08-20 00:48:00,
2013-08-19 19:58:00,91.0,62.6,29.90,ENE,69,5.0,0.0,39,0.00,CLR,,0.00,WeatherDisplay:10.37,2013-08-20 00:58:00,
2013-08-19 20:08:00,90.5,62.2,29.90,East,88,3.0,0.0,39,0.00,CLR,,0.00,WeatherDisplay:10.37,2013-08-20 01:08:00,
2013-08-19 20:18:00,90.0,62.4,29.90,East,85,3.0,0.0,40,0.00,CLR,,0.00,WeatherDisplay:10.37,2013-08-20 01:18:00,
2013-08-19 20:28:00,89.4,61.9,29.90,East,84,2.0,0.0,40,0.00,CLR,,0.00,WeatherDisplay:10.37,2013-08-20 01:28:00,
2013-08-19 20:38:00,89.1,62.3,29.90,East,88,1.0,0.0,41,0.00,CLR,,0.00,WeatherDisplay:10.37,2013-08-20 01:38:00,
2013-08-19 20:48:00,88.7,62.6,29.91,ESE,110,2.0,0.0,42,0.00,CLR,,0.00,WeatherDisplay:10.37,2013-08-20 01:48:00,
2013-08-19 20:58:00,88.2,62.8,29.91,East,93,1.0,0.0,43,0.00,CLR,,0.00,WeatherDisplay:10.37,2013-08-20 01:58:00,
2013-08-19 21:08:00,87.8,62.5,29.91,East,95,1.0,0.0,43,0.00,CLR,,0.00,WeatherDisplay:10.37,2013-08-20 02:08:00,
2013-08-19 21:18:00,87.1,61.9,29.92,East,81,1.0,0.0,43,0.00,CLR,,0.00,WeatherDisplay:10.37,2013-08-20 02:18:00,
2013-08-19 21:28:00,86.5,62.7,29.91,ENE,70,2.0,0.0,45,0.00,CLR,,0.00,WeatherDisplay:10.37,2013-08-20 02:28:00,
2013-08-19 21:38:00,86.2,62.3,29.92,East,80,0.0,0.0,45,0.00,CLR,,0.00,WeatherDisplay:10.37,2013-08-20 02:38:00,
2013-08-19 21:48:00,85.6,62.5,29.92,East,90,1.0,0.0,46,0.00,CLR,,0.00,WeatherDisplay:10.37,2013-08-20 02:48:00,
2013-08-19 21:58:00,85.3,62.8,29.92,East,90,1.0,0.0,47,0.00,CLR,,0.00,WeatherDisplay:10.37,2013-08-20 02:58:00,
2013-08-19 22:08:00,84.9,61.8,29.92,ESE,108,2.0,0.0,46,0.00,CLR,,0.00,WeatherDisplay:10.37,2013-08-20 03:08:00,
2013-08-19 22:18:00,84.6,62.1,29.93,East,94,1.0,0.0,47,0.00,CLR,,0.00,WeatherDisplay:10.37,2013-08-20 03:18:00,
2013-08-19 22:28:00,84.4,61.9,29.92,East,82,3.0,0.0,47,0.00,CLR,,0.00,WeatherDisplay:10.37,2013-08-20 03:28:00,
2013-08-19 22:38:00,84.2,62.4,29.93,East,94,2.0,0.0,48,0.00,CLR,,0.00,WeatherDisplay:10.37,2013-08-20 03:38:00,
2013-08-19 22:48:00,84.2,62.3,29.93,East,89,2.0,0.0,48,0.00,CLR,,0.00,WeatherDisplay:10.37,2013-08-20 03:48:00,
2013-08-19 22:58:00,84.0,61.6,29.93,East,94,1.0,0.0,47,0.00,CLR,,0.00,WeatherDisplay:10.37,2013-08-20 03:58:00,
2013-08-19 23:08:00,84.0,61.6,29.93,ESE,108,3.0,0.0,47,0.00,CLR,,0.00,WeatherDisplay:10.37,2013-08-20 04:08:00,
2013-08-19 23:18:00,83.8,61.5,29.93,ESE,115,1.0,0.0,47,0.00,CLR,,0.00,WeatherDisplay:10.37,2013-08-20 04:18:00,
2013-08-19 23:28:00,83.7,61.3,29.93,East,90,2.0,0.0,47,0.00,CLR,,0.00,WeatherDisplay:10.37,2013-08-20 04:28:00,
2013-08-19 23:38:00,83.5,61.1,29.94,East,91,1.0,0.0,47,0.00,CLR,,0.00,WeatherDisplay:10.37,2013-08-20 04:38:00,
2013-08-19 23:48:00,83.1,61.4,29.94,ENE,62,1.0,0.0,48,0.00,CLR,,0.00,WeatherDisplay:10.37,2013-08-20 04:48:00,
2013-08-19 23:58:00,82.4,61.3,29.94,ESE,105,3.0,0.0,49,0.00,CLR,,0.00,WeatherDisplay:10.37,2013-08-20 04:58:00,